ON7CFI Weather Reports


Display with metric or nautical units.
time (UTC)temp
F
wind
direction
speed
MPH
gust
MPH
rain 1hr
in
rain 24hr
in
rain mn
in
humidity
%
barometer
mb
20260506194008 50 75 1.0 4.0 0.00 0.83 0.53 82 1010.9
20260506193504 50 77 1.0 3.0 0.00 0.84 0.53 82 1010.8
20260506193004 50 68 0.0 2.0 0.00 0.85 0.53 82 1010.8
20260506192503 50 64 1.0 3.0 0.00 0.85 0.53 82 1010.7
20260506192003 50 66 1.0 3.0 0.00 0.86 0.53 81 1010.5
20260506191503 50 65 1.0 3.0 0.00 0.87 0.53 81 1010.5
20260506191218 50 65 1.0 3.0 0.00 0.87 0.53 81 1010.5
20260506190503 50 73 1.0 3.0 0.00 0.88 0.53 80 1010.3
20260506190004 50 77 1.0 2.0 0.00 0.89 0.53 80 1010.3
20260506185503 50 80 1.0 2.0 0.00 0.90 0.53 79 1010.2
20260506185003 50 70 1.0 5.0 0.00 0.91 0.53 78 1010.2
20260506184509 51 76 2.0 5.0 0.00 0.91 0.53 78 1010.2
20260506184003 51 81 2.0 5.0 0.00 0.91 0.53 77 1010.2
20260506183504 52 74 2.0 5.0 0.00 0.92 0.53 77 1010.1
20260506183003 52 73 2.0 5.0 0.00 0.92 0.53 76 1010.0
20260506182503 52 74 1.0 4.0 0.00 0.92 0.53 75 1010.0
20260506182003 52 79 1.0 4.0 0.00 0.92 0.53 75 1009.9
20260506181503 53 73 1.0 4.0 0.00 0.93 0.53 74 1009.8
20260506181003 53 65 2.0 4.0 0.00 0.93 0.53 72 1009.8
20260506180503 53 66 2.0 6.0 0.00 0.93 0.53 72 1009.7
20260506180004 54 70 1.0 6.0 0.00 0.93 0.53 72 1009.6
20260506175503 54 69 2.0 7.0 0.00 0.94 0.53 72 1009.5
20260506175218 54 66 2.0 7.0 0.00 0.94 0.53 71 1009.3
20260506174717 54 69 2.0 7.0 0.00 0.94 0.53 72 1009.3
20260506174003 54 61 2.0 7.0 0.00 0.94 0.53 73 1009.2
20260506173504 54 61 2.0 7.0 0.00 0.94 0.53 72 1009.2
20260506173003 55 65 2.0 7.0 0.00 0.94 0.53 72 1009.1
20260506172503 55 68 2.0 7.0 0.00 0.94 0.53 72 1009.2
20260506172218 55 72 2.0 7.0 0.00 0.94 0.53 73 1009.2
20260506171503 55 71 1.0 4.0 0.00 0.94 0.53 74 1009.1
20260506171003 55 73 1.0 3.0 0.00 0.94 0.53 75 1009.1
20260506170503 55 79 1.0 4.0 0.00 0.94 0.53 75 1009.1
20260506170003 55 83 1.0 4.0 0.00 0.94 0.53 75 1009.0
20260506165503 55 73 1.0 3.0 0.00 0.94 0.53 75 1009.0
20260506165004 55 58 1.0 3.0 0.00 0.94 0.53 75 1008.9
20260506164503 55 70 1.0 3.0 0.00 0.94 0.53 74 1008.9
20260506164003 55 81 2.0 7.0 0.00 0.94 0.53 73 1008.8
20260506163503 55 78 2.0 7.0 0.00 0.94 0.53 73 1008.8
20260506163217 55 84 2.0 7.0 0.00 0.94 0.53 73 1008.8
20260506162503 56 99 1.0 4.0 0.00 0.94 0.53 73 1008.8
20260506162003 56 87 2.0 5.0 0.00 0.94 0.53 72 1008.8
20260506161503 56 80 2.0 5.0 0.00 0.94 0.53 71 1008.8
20260506161003 56 76 2.0 8.0 0.00 0.94 0.53 71 1008.7
20260506160503 57 78 2.0 8.0 0.00 0.94 0.53 71 1008.8
20260506160004 57 102 2.0 6.0 0.00 0.94 0.53 71 1008.7
20260506155504 57 99 2.0 6.0 0.00 0.94 0.53 73 1008.7
20260506155003 57 85 3.0 6.0 0.00 0.94 0.53 73 1008.6
20260506154503 57 86 2.0 6.0 0.00 0.94 0.53 73 1008.6
20260506154003 56 87 2.0 4.0 0.00 0.94 0.53 74 1008.7
20260506153503 56 81 2.0 6.0 0.00 0.94 0.53 75 1008.6
20260506153003 56 75 1.0 6.0 0.00 0.94 0.53 74 1008.6
20260506152718 56 76 1.0 6.0 0.00 0.94 0.53 74 1008.7
20260506152003 56 81 2.0 4.0 0.00 0.94 0.53 70 1008.6
20260506151503 56 67 2.0 7.0 0.00 0.94 0.53 69 1008.6
20260506151217 57 58 2.0 7.0 0.00 0.94 0.53 69 1008.6
20260506150503 57 63 2.0 5.0 0.00 0.94 0.53 70 1008.5
20260506150004 57 57 2.0 5.0 0.00 0.94 0.53 71 1008.5
20260506145503 57 59 2.0 5.0 0.00 0.94 0.53 70 1008.4
20260506145003 57 69 1.0 4.0 0.00 0.94 0.53 72 1008.4
20260506144503 57 57 1.0 3.0 0.00 0.94 0.53 71 1008.4
20260506144217 57 55 1.0 4.0 0.00 0.94 0.53 73 1008.4
20260506143503 57 66 1.0 4.0 0.00 0.94 0.53 74 1008.6
20260506143003 57 69 2.0 5.0 0.00 0.94 0.53 73 1008.6
20260506142503 57 72 3.0 7.0 0.00 0.94 0.53 71 1008.6
20260506142004 57 50 3.0 9.0 0.00 0.94 0.53 70 1008.6
20260506141503 58 352 2.0 9.0 0.00 0.94 0.53 71 1008.6
20260506141218 58 349 2.0 5.0 0.00 0.94 0.53 71 1008.6
20260506140503 58 16 2.0 5.0 0.00 0.94 0.53 73 1008.7
20260506140003 58 16 2.0 4.0 0.00 0.94 0.53 75 1008.7
20260506135717 58 350 2.0 4.0 0.00 0.94 0.53 75 1008.6
20260506135218 57 314 2.0 5.0 0.00 0.94 0.53 75 1008.6
20260506134503 56 311 2.0 8.0 0.00 0.94 0.53 77 1008.5
20260506134003 56 50 1.0 6.0 0.00 0.94 0.53 77 1008.6
20260506133503 56 44 2.0 6.0 0.00 0.94 0.53 76 1008.5
20260506133003 56 360 2.0 7.0 0.00 0.94 0.53 77 1008.6
20260506132503 57 12 2.0 7.0 0.00 0.94 0.53 76 1008.6
20260506132003 57 49 2.0 6.0 0.00 0.94 0.53 77 1008.5
20260506131503 56 54 2.0 6.0 0.00 0.94 0.53 77 1008.5
20260506131003 55 344 2.0 4.0 0.00 0.94 0.53 80 1008.6
20260506130503 55 350 2.0 7.0 0.00 0.94 0.53 80 1008.6
20260506130003 55 36 1.0 7.0 0.00 0.94 0.53 81 1008.6
20260506125503 54 58 2.0 8.0 0.00 0.94 0.53 83 1008.5
20260506125003 54 74 2.0 8.0 0.00 0.94 0.53 83 1008.5
20260506124503 54 75 1.0 4.0 0.00 0.94 0.53 86 1008.5
20260506124003 54 67 2.0 4.0 0.00 0.94 0.53 85 1008.4
20260506123508 54 63 1.0 4.0 0.00 0.94 0.53 85 1008.4
20260506123004 54 36 1.0 4.0 0.00 0.94 0.53 84 1008.4
20260506122503 54 360 1.0 3.0 0.00 0.94 0.53 84 1008.3
20260506122218 54 7 0.0 3.0 0.00 0.94 0.53 85 1008.3
20260506121717 55 58 1.0 7.0 0.00 0.94 0.53 84 1008.3
20260506121003 55 62 1.0 7.0 0.00 0.94 0.53 84 1008.3
20260506120503 54 71 2.0 4.0 0.00 0.94 0.53 85 1008.2
20260506120003 54 65 1.0 4.0 0.00 0.94 0.53 86 1008.2
20260506115503 54 355 0.0 3.0 0.00 0.94 0.53 88 1008.3
20260506115003 53 84 0.0 3.0 0.00 0.94 0.53 87 1008.2
20260506114503 53 343 1.0 3.0 0.00 0.94 0.53 86 1008.2
20260506114218 53 357 1.0 3.0 0.00 0.94 0.53 85 1008.2
20260506113503 54 36 1.0 3.0 0.00 0.94 0.53 86 1008.2
20260506113003 54 37 1.0 3.0 0.00 0.94 0.53 85 1008.1
20260506112503 54 70 2.0 4.0 0.00 0.94 0.53 85 1008.2
20260506112003 54 82 2.0 5.0 0.00 0.94 0.53 84 1008.2
20260506111503 54 83 2.0 5.0 0.00 0.94 0.53 85 1008.3
20260506111003 54 75 2.0 7.0 0.00 0.94 0.53 88 1008.3
20260506110503 53 50 2.0 7.0 0.00 0.94 0.53 89 1008.3
20260506110003 53 349 2.0 7.0 0.00 0.94 0.53 90 1008.4
20260506105718 52 320 2.0 5.0 0.00 0.94 0.53 91 1008.4
20260506105003 52 2 2.0 5.0 0.00 0.94 0.53 92 1008.5
20260506104503 52 59 2.0 7.0 0.00 0.94 0.53 92 1008.4
20260506104003 52 62 2.0 7.0 0.00 0.94 0.53 92 1008.4
20260506103503 52 63 1.0 5.0 0.00 0.94 0.53 94 1008.4
20260506103003 52 25 2.0 5.0 0.00 0.94 0.53 94 1008.4
20260506102503 51 347 2.0 4.0 0.00 0.94 0.53 94 1008.4
20260506102003 51 62 2.0 4.0 0.00 0.94 0.53 94 1008.4
20260506101718 51 67 2.0 5.0 0.00 0.94 0.53 94 1008.4
20260506101003 51 348 2.0 5.0 0.00 0.94 0.53 95 1008.3
20260506100503 51 7 2.0 6.0 0.00 0.94 0.53 95 1008.2
20260506100003 50 59 2.0 6.0 0.00 0.94 0.53 95 1008.2
20260506095503 50 59 2.0 4.0 0.00 0.94 0.53 96 1008.2
20260506095003 50 64 2.0 9.0 0.00 0.94 0.53 96 1008.2
20260506094503 50 60 2.0 9.0 0.00 0.94 0.53 96 1008.3
20260506094003 50 44 2.0 5.0 0.01 0.94 0.53 96 1008.1
20260506093503 49 60 2.0 7.0 0.01 0.94 0.53 97 1008.1
20260506093003 49 74 2.0 7.0 0.01 0.94 0.53 97 1008.1
20260506092503 49 73 2.0 6.0 0.01 0.94 0.53 97 1008.0
20260506092004 49 66 2.0 4.0 0.01 0.94 0.53 97 1008.0
20260506091503 48 63 2.0 4.0 0.01 0.94 0.53 97 1008.0
20260506091219 48 47 1.0 4.0 0.01 0.94 0.53 97 1008.0
20260506090503 48 58 2.0 10.0 0.01 0.94 0.53 97 1007.9
20260506090003 48 48 2.0 10.0 0.02 0.94 0.53 97 1007.9
20260506085503 48 44 2.0 5.0 0.02 0.94 0.53 97 1007.9
20260506085003 48 70 2.0 8.0 0.02 0.94 0.53 97 1007.8
20260506084503 48 73 2.0 8.0 0.02 0.95 0.53 97 1007.7
20260506084003 48 68 2.0 6.0 0.02 0.94 0.52 97 1007.8
20260506083503 48 56 2.0 6.0 0.02 0.94 0.52 97 1007.7
20260506083003 48 57 2.0 8.0 0.02 0.94 0.52 97 1007.7
20260506082504 48 76 2.0 8.0 0.03 0.94 0.52 97 1007.6
20260506082003 48 78 3.0 5.0 0.03 0.94 0.52 97 1007.6
20260506081503 48 71 3.0 8.0 0.03 0.94 0.52 97 1007.6
20260506081218 48 67 3.0 8.0 0.03 0.94 0.52 97 1007.5
20260506080503 48 70 3.0 7.0 0.04 0.94 0.52 97 1007.6
20260506073503 48 65 2.0 8.0 0.04 0.92 0.50 97 1007.4
20260506073003 48 19 1.0 3.0 0.04 0.92 0.50 97 1007.4
20260506072508 48 17 2.0 8.0 0.04 0.91 0.49 97 1007.3
20260506072003 48 341 2.0 8.0 0.04 0.91 0.49 97 1007.3
20260506071503 48 319 2.0 8.0 0.05 0.91 0.49 97 1007.3
20260506071003 48 356 2.0 5.0 0.05 0.91 0.49 97 1007.3
20260506070503 47 349 2.0 7.0 0.04 0.91 0.48 97 1007.3
20260506062503 47 337 1.0 4.0 0.03 0.87 0.45 97 1006.9
20260506062003 47 4 1.0 4.0 0.03 0.88 0.45 97 1006.9
20260506061503 47 21 1.0 4.0 0.02 0.87 0.44 97 1006.8
20260506061003 47 326 1.0 5.0 0.02 0.88 0.44 97 1006.9
20260506060508 47 322 1.0 5.0 0.02 0.88 0.44 97 1006.9
20260506051003 47 344 1.0 5.0 0.03 0.87 0.42 97 1006.9
20260506050503 47 324 1.0 5.0 0.03 0.88 0.42 97 1006.9
20260506045003 47 69 2.0 6.0 0.04 0.88 0.41 97 1006.8
20260506044503 47 70 1.0 7.0 0.04 0.89 0.41 97 1006.8
20260506044003 47 71 1.0 7.0 0.05 0.89 0.41 97 1006.8
20260506043503 47 46 1.0 4.0 0.05 0.89 0.41 97 1006.8
20260506043003 46 50 1.0 5.0 0.04 0.89 0.40 97 1006.8
20260506042503 47 58 1.0 5.0 0.04 0.89 0.40 97 1006.7
20260506042217 46 62 1.0 6.0 0.04 0.89 0.40 97 1006.7
20260506041503 47 55 1.0 6.0 0.04 0.88 0.39 97 1006.7
20260506041217 47 52 1.0 4.0 0.04 0.88 0.39 97 1006.7
20260506040503 47 77 1.0 4.0 0.03 0.87 0.39 97 1006.7
20260506040003 47 71 1.0 4.0 0.03 0.87 0.38 97 1006.8
20260506035718 47 50 1.0 4.0 0.03 0.87 0.38 97 1006.8
20260506035004 47 350 1.0 6.0 0.02 0.86 0.37 97 1006.7
20260506034503 47 356 1.0 6.0 0.02 0.86 0.37 97 1006.8
20260506034003 47 342 1.0 5.0 0.02 0.85 0.36 97 1006.9
20260506033717 47 339 2.0 5.0 0.02 0.85 0.36 97 1006.9
20260506033003 47 33 1.0 4.0 0.02 0.85 0.36 97 1006.9
20260506032503 47 51 1.0 4.0 0.02 0.85 0.36 97 1006.9
20260506032003 47 355 1.0 4.0 0.03 0.85 0.36 97 1006.9
20260506031503 47 16 1.0 4.0 0.02 0.84 0.35 96 1007.0
20260506031003 47 52 2.0 4.0 0.03 0.84 0.35 96 1006.9
20260506030717 47 57 2.0 4.0 0.03 0.84 0.35 97 1007.0
20260506030004 47 37 1.0 4.0 0.02 0.83 0.35 97 1007.0
20260506025503 47 22 1.0 3.0 0.03 0.83 0.35 97 1007.1
20260506025003 47 13 1.0 4.0 0.03 0.83 0.35 97 1007.1
20260506024503 47 22 1.0 5.0 0.04 0.83 0.35 97 1007.2
20260506024003 47 54 2.0 5.0 0.04 0.83 0.35 97 1007.2
20260506023503 47 66 2.0 6.0 0.04 0.83 0.34 97 1007.2
20260506023003 47 70 2.0 6.0 0.04 0.83 0.34 97 1007.2
20260506022503 47 70 2.0 5.0 0.05 0.83 0.34 97 1007.2
20260506022003 48 72 2.0 5.0 0.05 0.82 0.33 97 1007.3
20260506021503 48 66 2.0 4.0 0.05 0.82 0.33 97 1007.2
20260506021218 48 67 2.0 4.0 0.05 0.81 0.32 97 1007.3
20260506020503 48 60 2.0 4.0 0.06 0.81 0.32 97 1007.3
20260506020003 48 70 2.0 4.0 0.06 0.82 0.32 97 1007.2
20260506015503 48 79 1.0 4.0 0.06 0.82 0.31 97 1007.2
20260506015003 48 79 1.0 6.0 0.07 0.83 0.31 97 1007.2
20260506014503 48 70 2.0 6.0 0.06 0.82 0.31 97 1007.3
20260506014003 48 47 2.0 8.0 0.07 0.84 0.31 97 1007.2
20260506013719 48 47 2.0 8.0 0.07 0.84 0.30 97 1007.2
20260506013218 48 62 2.0 5.0 0.08 0.85 0.30 97 1007.3
20260506012504 48 68 2.0 5.0 0.09 0.85 0.29 97 1007.3
20260506012218 48 67 2.0 6.0 0.09 0.85 0.29 97 1007.2
20260506011503 48 78 2.0 6.0 0.09 0.84 0.28 97 1007.3
20260506011003 48 79 1.0 5.0 0.09 0.83 0.28 97 1007.3
20260506010503 48 77 2.0 6.0 0.09 0.83 0.27 97 1007.3
20260506010009 48 83 2.0 6.0 0.09 0.82 0.26 97 1007.3
20260506005503 48 76 2.0 6.0 0.09 0.81 0.25 97 1007.4
20260506005003 48 70 2.0 6.0 0.09 0.80 0.24 97 1007.4
20260506004504 49 79 2.0 6.0 0.10 0.80 0.24 97 1007.4
20260506004003 49 72 1.0 6.0 0.10 0.80 0.24 97 1007.4
20260506003503 49 66 1.0 5.0 0.10 0.79 0.23 97 1007.4
20260506003009 49 57 1.0 5.0 0.10 0.78 0.22 97 1007.5
20260506002503 49 60 1.0 4.0 0.09 0.76 0.20 97 1007.5
20260506002003 49 76 1.0 4.0 0.09 0.76 0.20 97 1007.5
20260506001718 49 61 2.0 4.0 0.09 0.76 0.20 97 1007.5
20260506001003 49 28 1.0 5.0 0.09 0.74 0.18 97 1007.6
20260506000503 49 41 1.0 4.0 0.09 0.73 0.17 97 1007.6
20260506000004 49 69 1.0 4.0 0.09 0.72 0.17 97 1007.7
20260505235504 49 79 1.0 4.0 0.09 0.72 0.16 97 1007.7
20260505235003 49 78 2.0 5.0 0.08 0.71 0.15 97 1007.7
20260505234503 49 75 2.0 6.0 0.08 0.70 0.14 97 1007.8
20260505234003 49 76 2.0 9.0 0.08 0.69 0.13 97 1007.9
20260505233503 49 80 2.0 9.0 0.07 0.69 0.13 97 1007.8
20260505233008 49 71 2.0 8.0 0.07 0.68 0.12 97 1007.9
20260505232503 49 63 2.0 8.0 0.08 0.68 0.12 97 1007.8
20260505232003 49 76 2.0 7.0 0.08 0.67 0.11 97 1007.9
20260505231503 49 67 2.0 7.0 0.08 0.66 0.10 97 1007.9
20260505231003 49 64 2.0 6.0 0.08 0.65 0.09 97 1008.0
20260505230504 49 72 3.0 6.0 0.08 0.65 0.09 97 1007.9
20260505230003 49 75 2.0 6.0 0.08 0.64 0.08 97 1007.9
20260505225504 49 73 2.0 6.0 0.09 0.63 0.07 97 1008.0
20260505225003 49 79 2.0 6.0 0.11 0.63 0.07 97 1008.0
20260505224503 49 82 2.0 6.0 0.12 0.62 0.06 97 1008.0
20260505224003 49 73 2.0 6.0 0.12 0.61 0.06 97 1008.1
20260505223718 49 72 2.0 6.0 0.12 0.61 0.06 97 1008.1
20260505223003 49 75 2.0 6.0 0.12 0.61 0.05 97 1008.2
20260505222503 49 82 1.0 4.0 0.13 0.61 0.04 97 1008.2
20260505222003 49 85 2.0 6.0 0.14 0.60 0.03 97 1008.1
20260505221503 49 79 2.0 6.0 0.15 0.59 0.02 97 1008.3
20260505221217 49 77 2.0 6.0 0.15 0.58 0.02 97 1008.3
20260505220503 49 72 2.0 6.0 0.16 0.57 0.01 97 1008.3
20260505220004 49 72 2.0 6.0 0.17 0.57 0.00 97 1008.3
20260505215504 49 74 2.0 7.0 0.15 0.54 0.54 97 1008.3
20260505215003 49 74 2.0 7.0 0.14 0.53 0.53 97 1008.4
20260505214503 49 72 2.0 6.0 0.13 0.51 0.51 96 1008.4
20260505214003 49 68 2.0 6.0 0.13 0.50 0.50 96 1008.4
20260505213504 49 68 2.0 6.0 0.13 0.50 0.50 96 1008.5
20260505213003 49 73 2.0 7.0 0.15 0.50 0.50 96 1008.5
20260505212503 49 77 2.0 7.0 0.14 0.48 0.48 96 1008.5
20260505212003 50 74 2.0 8.0 0.13 0.46 0.46 96 1008.5
20260505211503 50 74 3.0 8.0 0.13 0.45 0.44 96 1008.5
20260505211218 50 75 2.0 8.0 0.12 0.44 0.43 97 1008.5
20260505210503 50 76 2.0 8.0 0.12 0.43 0.42 97 1008.5
20260505210003 50 79 2.0 8.0 0.11 0.41 0.40 97 1008.6
20260505205503 50 76 2.0 6.0 0.11 0.40 0.39 97 1008.6
20260505205003 50 72 2.0 4.0 0.11 0.39 0.39 97 1008.6
20260505204504 50 74 2.0 7.0 0.11 0.39 0.38 97 1008.6
20260505203503 50 73 2.0 5.0 0.11 0.38 0.36 96 1008.6
20260505203003 50 69 1.0 4.0 0.10 0.36 0.35 96 1008.6
20260505202503 50 75 2.0 4.0 0.09 0.35 0.34 96 1008.6
20260505202003 50 81 2.0 6.0 0.09 0.35 0.33 97 1008.6
20260505201503 50 79 2.0 6.0 0.09 0.33 0.31 96 1008.6
20260505201220 50 79 2.0 4.0 0.09 0.33 0.31 96 1008.5
20260505200503 50 82 2.0 4.0 0.09 0.31 0.30 96 1008.5
20260505200003 50 87 1.0 4.0 0.09 0.31 0.29 96 1008.4
20260505195717 50 85 1.0 4.0 0.09 0.31 0.29 96 1008.5
20260505195003 50 80 1.0 4.0 0.09 0.29 0.28 96 1008.5